National Weather Service Raw Text Product

Displaying AFOS PIL: RWRTX Received: 2018-08-22 01:00 UTC


910 
ASUS44 KFWD 220101
RWRTX 
NORTH TEXAS HOURLY WEATHER ROUNDUP
NATIONAL WEATHER SERVICE FORT WORTH TX
800 PM CDT TUE AUG 21 2018

NOTE: "FAIR" INDICATES FEW OR NO CLOUDS BELOW 12,000 FEET WITH NO
SIGNIFICANT WEATHER AND/OR OBSTRUCTIONS TO VISIBILITY.

TXZ118-119-220200-
DALLAS/FORT WORTH METROPLEX
  
CITY           SKY/WX    TMP DP  RH WIND       PRES   REMARKS
DFW AIRPORT    FAIR      85  62  46 NE8       30.06R                  
DALLAS LOVE    FAIR      88  63  43 NE7       30.07R                  
FTW MEACHAM    FAIR      88  62  41 NE8       30.07R                  
DAL-EXECUTIVE  FAIR      89  60  37 NE8       30.06S                  
FTW-ALLIANCE   FAIR      87  62  43 E7        30.07R                  
FTW-NAS-JRB    FAIR      88  60  38 E7        30.08R                  
FTW-SPINKS     FAIR      85  59  40 CALM      30.09R                  
ARLINGTON      FAIR      89  64  43 NE7       30.07R HX  90           
GRAND PRAIRIE  CLEAR     88  61  40 NE7       30.08S                  
MESQUITE       CLEAR     84  64  51 E3        30.07R                  
LANCASTER      FAIR      84  64  51 E3        30.07S                  
$$

TXZ091>094-102>105-117-120-121-131>134-220200-
NORTH CENTRAL TEXAS
  
CITY           SKY/WX    TMP DP  RH WIND       PRES   REMARKS
SHRMAN/DENISON FAIR      80  65  60 NE3       30.10S                  
GAINESVILLE    FAIR      81  64  55 NE3       30.11S                  
BOWIE          FAIR      82  62  50 E3        30.10F                  
BRIDGEPORT     FAIR      85  59  41 E5        30.10R                  
DECATUR        FAIR      84  62  47 CALM      30.09S                  
DENTON         FAIR      84  64  50 NE7       30.08R                  
MCKINNEY       FAIR      84  62  47 NE6       30.08R                  
BONHAM         FAIR      79  66  62 NE5       30.10R                  
ROCKWALL       FAIR      84  63  48 NE6       30.08R                  
TERRELL        FAIR      84  66  54 NE5       30.07R                  
WAXAHACHIE     FAIR      85  66  52 E5        30.09R                  
CLEBURNE       FAIR      88  61  40 NE10      30.09S                  
GRANBURY       FAIR      90  64  41 E7        30.08R HX  91           
$$

TXZ083>090-098>101-113>116-127>130-139>142-154-155-220200-
WESTERN NORTH TEXAS
  
CITY           SKY/WX    TMP DP  RH WIND       PRES   REMARKS
WICHITA FALLS  FAIR      84  63  49 E7        30.08S                  
WF-KICKAPOO    FAIR      86  62  43 E8        30.10S                  
VERNON         FAIR      87  61  41 E10       30.09S                  
ABILENE        FAIR      88  67  49 SE18G26   30.09R HX  91           
BRECKENRIDGE   FAIR      92  62  36 E13       30.07R HX  92           
CISCO          FAIR      90  66  45 SE8       30.09R HX  92           
EASTLAND       FAIR      88  65  46 E7        30.09R                  
RANGER         FAIR      87  64  44 E9G16     30.10R                  
MINERAL WELLS  FAIR      86  64  47 E6        30.07R                  
STEPHENVILLE   FAIR      89  61  38 E7        30.11R                  
COMANCHE       FAIR      90  67  46 SE6       30.08R HX  92           
BROWNWOOD      FAIR      90  64  43 E3        30.07S HX  91           
COLEMAN        FAIR      87  66  49 N5        30.09R                  
BRADY          FAIR      90  64  43 E8        30.08R HX  91           
$$

TXZ143>147-156>162-174-175-220200-
CENTRAL TEXAS
  
CITY           SKY/WX    TMP DP  RH WIND       PRES   REMARKS
WACO           FAIR      92  64  39 NE12      30.04R HX  93           
WACO-TSTC      CLEAR     91  63  38 NE8       30.04S HX  92           
WACO-MCGREGOR  FAIR      92  67  43 NE14      30.04R HX  95           
HILLSBORO      FAIR      87  67  50 E6        30.07R HX  90           
CORSICANA      FAIR      86  63  45 NE5       30.07S HAZE             
MEXIA          FAIR      88  64  44 NE3       30.05                   
HEARNE         FAIR      85  73  65 CALM      30.03R HX  91           
CAMERON        FAIR      89  69  52 E6        30.03R HX  93           
TEMPLE           N/A     92  68  45 E9        30.04R HX  96           
KILLEEN        MOCLDY    88  68  52 CALM      30.04R HX  91           
KILLEEN-SKYLRK FAIR      93  70  46 E7        30.04R HX  99           
FORT HOOD      FAIR      93  66  40 E9        30.01R HX  96           
GATESVILLE     FAIR      91  66  43 CALM      30.06R HX  94           
HAMILTON       FAIR      91  66  43 E5        30.08S HX  94           
LAMPASAS       FAIR      85  69  59 N6        30.05F                  
$$

TXZ095>097-106>112-122>126-135>138-148>153-164>167-220200-
EAST TEXAS
  
CITY           SKY/WX    TMP DP  RH WIND       PRES   REMARKS
PARIS          FAIR      80  67  64 N6        30.09R                  
SULPHUR SPRNGS FAIR      84  64  50 CALM      30.10R                  
MOUNT PLEASANT FAIR      84  62  46 N5        30.09R                  
GILMER         FAIR      85  57  38 NW3       30.07R                  
MINEOLA        FAIR      82  59  44 N7        30.07R                  
TYLER          FAIR      87  57  35 N6        30.06S                  
LONGVIEW       FAIR      84  59  42 NW5       30.05R                  
MARSHALL       FAIR      85  57  38 MISG      30.07R                  
ATHENS         FAIR      86  63  45 CALM      30.05S                  
PALESTINE      FAIR      85  60  43 N5        30.06S                  
JACKSONVILLE   FAIR      87  60  40 CALM      30.08S                  
HENDERSON      FAIR      86  58  38 CALM      30.07R                  
CENTER         FAIR      82  63  52 N5        30.05R                  
NACOGDOCHES      N/A     87  63  44 CALM        N/A                   
LUFKIN         FAIR      83  72  69 CALM      30.04R                  
$$

SUPPLEMENTAL OBSERVATIONS (NWS FORT WORTH AREA)
  
CITY           SKY/WX    TMP DP  RH WIND       PRES   REMARKS
$$

SUPPLEMENTAL OBSERVATIONS (NWS NORMAN AREA)
  
CITY           SKY/WX    TMP DP  RH WIND       PRES   REMARKS
GOODLETT         N/A     88  59  37 E15       30.08S                  
ODELL            N/A     85  63  47 E9        30.11S                  
CROWELL          N/A     90  63  40 E13       30.09S HX  90           
KNOX CITY        N/A     93  62  35 E10       30.07R HX  94           
SEYMOUR          N/A     89  60  37 E12G17    30.08S                  
$$

SUPPLEMENTAL OBSERVATIONS (NWS SAN ANGELO AREA)
  
CITY           SKY/WX    TMP DP  RH WIND       PRES   REMARKS
WEINERT          N/A     92  62  35 E10       30.08R HX  93           
HASKELL          N/A     91  57  31 E9        30.08R HX  90           
THROCKMORTON     N/A     91  63  39 E13       30.08S HX  91           
STAMFORD         N/A     91  67  44 E7        30.08S HX  94           
CLYDE            N/A     85  68  57 SE18      30.12R                  
$$

SUPPLEMENTAL OBSERVATIONS (NWS SHREVEPORT AREA)
  
CITY           SKY/WX    TMP DP  RH WIND       PRES   REMARKS
$$

SUPPLEMENTAL OBSERVATIONS ARE A COLLECTION OF AUTOMATED INSTRUMENTS
THAT ARE MAINTAINED BY A VARIETY OF FEDERAL AND STATE AGENCIES. 
CERTAIN ELEMENTS...SUCH AS HUMIDITY VALUES AND SUSTAINED WIND 
SPEEDS...MAY BE APPROXIMATED.